星链-32257 (STARLINK-32257)

导读

STARLINK-32257是美国SpaceX公司星链互联网星座的成员,于2024年11月30日发射入轨,属于SpaceX打造的低轨全球通信卫星网络。星链卫星采用标准化平板设计,搭载相控阵天线与激光通信终端,依托猎鹰火箭可实现批量发射部署,旨在为全球提供高速低延迟宽带互联网服务,尤其能覆盖地面基础设施难以抵达的偏远区域,单星设计寿命约5-7年,退役后会主动离轨再入大气层烧毁,避免太空垃圾影响。

Basic Information
目录编号:
62171
目录名称:
STARLINK-32257
国际标识:
2024-225J
轨道中心:
EARTH
卫星名称:
星链-32257
卫星全名:
星链-32257 (STARLINK-32257)
卫星状态:
在轨 (已飞行565 天)
发射日期:
2024-11-30 UTC
国别 :
美国 (US)
星等 :
--
Orbit Information
数据来源 国际轨道数据 AOE轨道数据
星历时间 2026-06-17T23:54:18+0800
8小时前
查看轨道信息
2026-06-17T05:00:00+0800
1天前
查看轨道信息
半长轴 6950.172km 6950.176km
偏心率 0.0003273 0.0003205
轨道倾角 70.001° 70.001°
近地点辐角 269.523° 272.454°
升交点赤经 272.244° 274.228°
平近点角 90.555° 159.928°
近地点 569.76km 569.811km
远地点 574.31km 574.267km
周期 96.107分钟 96.107分钟
每日圈数 14.983368 14.983355
Detailed Information
固有亮度:
5
最大亮度:
2.5
卫星平台:
Starlink V1.0
覆盖范围:
全球
运营商:
太空探索技术公司
运营商所在国:
美国
制造商(研发单位):
太空探索技术公司
制造商所在国:
美国
使用方式:
暂无
Satellite Introduction
Starlink 计划是 SpaceX 推出的全球卫星互联网项目,通过发射低轨道卫星,为全球尤其是偏远地区提供高速、低延迟的互联网服务。自 2019 年起,Starlink 已部署数千颗卫星,旨在缩小全球数字鸿沟,推动互联网普及。该项目还为军事、航空等行业提供通信支持,带来广泛经济效益。
2D Orbit Map
3D Orbit Map
Orbit Altitude Analysis Chart
Orbit Inclination Analysis Chart
Orbit Comprehensive Analysis Chart
View Comprehensive Chart